Estación de Cabildo
Ultimos registro cada 15 minutos 58
| N° | Estación | Fecha / Hora | Temperatura | Humedad | Lluvia | Velocidad | Dirección | Radiación | Presion |
| 58 | Cabildo | 05-09-2026 14:15 | 24 | 32 | 0 | 1,8 | 291 | 691 | 1012,6 |
| 57 | Cabildo | 05-09-2026 14:00 | 23,9 | 28 | 0 | 0 | 297 | 726 | 1012,7 |
| 56 | Cabildo | 05-09-2026 13:45 | 23,3 | 30 | 0 | 0 | 293 | 742 | 1013 |
| 55 | Cabildo | 05-09-2026 13:30 | 23,1 | 31 | 0 | 0 | 274 | 756 | 1013,1 |
| 54 | Cabildo | 05-09-2026 13:15 | 22,8 | 34 | 0 | 0,9 | 303 | 766 | 1013,2 |
| 53 | Cabildo | 05-09-2026 13:00 | 22,6 | 34 | 0 | 0 | 290 | 775 | 1013,4 |
| 52 | Cabildo | 05-09-2026 12:45 | 22,4 | 36 | 0 | 0 | 281 | 779 | 1013,6 |
| 51 | Cabildo | 05-09-2026 12:30 | 21,9 | 35 | 0 | 0 | 254 | 775 | 1013,7 |
| 50 | Cabildo | 05-09-2026 12:15 | 21,5 | 34 | 0 | 0 | 210 | 770 | 1014 |
| 49 | Cabildo | 05-09-2026 12:00 | 20,9 | 38 | 0 | 0 | 260 | 759 | 1014,3 |
| 48 | Cabildo | 05-09-2026 11:45 | 20,5 | 41 | 0 | 0 | 256 | 751 | 1014,3 |
| 47 | Cabildo | 05-09-2026 11:30 | 20,1 | 43 | 0 | 0 | 258 | 731 | 1014,6 |
| 46 | Cabildo | 05-09-2026 11:15 | 20 | 47 | 0 | 0 | 287 | 710 | 1014,9 |
| 45 | Cabildo | 05-09-2026 11:00 | 20,2 | 44 | 0 | 0 | 249 | 686 | 1014,9 |
| 44 | Cabildo | 05-09-2026 10:45 | 20,5 | 44 | 0 | 0 | 242 | 661 | 1014,9 |
| 43 | Cabildo | 05-09-2026 10:30 | 20,3 | 36 | 0 | 0 | 74 | 629 | 1015 |
| 42 | Cabildo | 05-09-2026 10:15 | 19,4 | 42 | 0 | 0 | 89 | 594 | 1015,3 |
| 41 | Cabildo | 05-09-2026 10:00 | 18,4 | 45 | 0 | 0 | 122 | 554 | 1015,5 |
| 40 | Cabildo | 05-09-2026 09:45 | 17,6 | 47 | 0 | 0 | 92 | 515 | 1015,6 |
| 39 | Cabildo | 05-09-2026 09:30 | 16,5 | 47 | 0 | 0 | 104 | 469 | 1015,8 |
| 38 | Cabildo | 05-09-2026 09:15 | 15,6 | 53 | 0 | 0,4 | 87 | 424 | 1015,7 |
| 37 | Cabildo | 05-09-2026 09:00 | 14,6 | 57 | 0 | 0 | 91 | 373 | 1015,8 |
| 36 | Cabildo | 05-09-2026 08:45 | 13,8 | 57 | 0 | 0 | 104 | 322 | 1016,1 |
| 35 | Cabildo | 05-09-2026 08:30 | 12,9 | 60 | 0 | 0 | 74 | 274 | 1016,2 |
| 34 | Cabildo | 05-09-2026 08:15 | 11,9 | 63 | 0 | 0 | 67 | 221 | 1016,1 |
| 33 | Cabildo | 05-09-2026 08:00 | 11,2 | 65 | 0 | 0 | 126 | 163 | 1016,1 |
| 32 | Cabildo | 05-09-2026 07:45 | 10 | 69 | 0 | 0 | 101 | 102 | 1016,1 |
| 31 | Cabildo | 05-09-2026 07:30 | 9,3 | 71 | 0 | 0 | 62 | 35 | 1016,2 |
| 30 | Cabildo | 05-09-2026 07:15 | 9,4 | 70 | 0 | 0,9 | 103 | 11 | 1016,2 |
| 29 | Cabildo | 05-09-2026 07:00 | 9,6 | 69 | 0 | 0 | 114 | 5 | 1016,2 |
| 28 | Cabildo | 05-09-2026 06:45 | 9,2 | 71 | 0 | 0 | 60 | 0 | 1015,9 |
| 27 | Cabildo | 05-09-2026 06:30 | 9,6 | 71 | 0 | 0 | 73 | 0 | 1016 |
| 26 | Cabildo | 05-09-2026 06:15 | 10,2 | 68 | 0 | 0,4 | 42 | 0 | 1016 |
| 25 | Cabildo | 05-09-2026 06:00 | 10,2 | 69 | 0 | 0 | 100 | 0 | 1016,1 |
| 24 | Cabildo | 05-09-2026 05:45 | 9,7 | 71 | 0 | 0 | 120 | 0 | 1016 |
| 23 | Cabildo | 05-09-2026 05:30 | 9,9 | 70 | 0 | 0 | 113 | 0 | 1015,9 |
| 22 | Cabildo | 05-09-2026 05:15 | 10,1 | 69 | 0 | 0 | 64 | 0 | 1015,8 |
| 21 | Cabildo | 05-09-2026 05:00 | 9,3 | 74 | 0 | 0 | 93 | 0 | 1015,8 |
| 20 | Cabildo | 05-09-2026 04:45 | 9,9 | 72 | 0 | 0 | 71 | 0 | 1015,9 |
| 19 | Cabildo | 05-09-2026 04:30 | 10,2 | 71 | 0 | 0 | 88 | 0 | 1016 |
| 18 | Cabildo | 05-09-2026 04:15 | 9,8 | 74 | 0 | 0 | 134 | 0 | 1016 |
| 17 | Cabildo | 05-09-2026 04:00 | 10 | 72 | 0 | 0,9 | 99 | 0 | 1016 |
| 16 | Cabildo | 05-09-2026 03:45 | 9,6 | 75 | 0 | 0 | 54 | 0 | 1016,3 |
| 15 | Cabildo | 05-09-2026 03:30 | 9,7 | 76 | 0 | 0 | 40 | 0 | 1016,5 |
| 14 | Cabildo | 05-09-2026 03:15 | 9,8 | 75 | 0 | 0 | 62 | 0 | 1016,7 |
| 13 | Cabildo | 05-09-2026 03:00 | 10,1 | 74 | 0 | 0 | 70 | 0 | 1016,9 |
| 12 | Cabildo | 05-09-2026 02:45 | 10,1 | 74 | 0 | 0 | 55 | 0 | 1017,1 |
| 11 | Cabildo | 05-09-2026 02:30 | 9,7 | 77 | 0 | 0 | 70 | 0 | 1017,2 |
| 10 | Cabildo | 05-09-2026 02:15 | 10 | 77 | 0 | 0 | 88 | 0 | 1017,3 |
| 9 | Cabildo | 05-09-2026 02:00 | 9,8 | 79 | 0 | 0 | 49 | 0 | 1017,4 |
| 8 | Cabildo | 05-09-2026 01:45 | 9,8 | 79 | 0 | 0 | 80 | 0 | 1017,5 |
| 7 | Cabildo | 05-09-2026 01:30 | 9,6 | 81 | 0 | 0 | 90 | 0 | 1017,5 |
| 6 | Cabildo | 05-09-2026 01:15 | 9,8 | 81 | 0 | 0 | 49 | 0 | 1017,4 |
| 5 | Cabildo | 05-09-2026 01:00 | 10,1 | 81 | 0 | 0 | 72 | 0 | 1017,6 |
| 4 | Cabildo | 05-09-2026 00:45 | 10 | 81 | 0 | 0 | 74 | 0 | 1017,6 |
| 3 | Cabildo | 05-09-2026 00:30 | 10 | 82 | 0 | 0 | 89 | 0 | 1017,9 |
| 2 | Cabildo | 05-09-2026 00:15 | 9,9 | 83 | 0 | 0 | 72 | 0 | 1017,9 |
| 1 | Cabildo | 05-09-2026 00:00 | 9,9 | 84 | 0 | 0 | 62 | 0 | 1017,8 |